This is the latest recevied weather packets stored in our database for station/object JF2ZGN-13. If no packets are shown the sender has not sent any weather packets the latest 10 day(s).
| Time | Temp. | Humidity | Pressure | Rain* | Wind** | Luminosity | Snow |
|---|---|---|---|---|---|---|---|
| 1777321696 | 9.44° C | 77% | 904.8 hPa | 0 mm | - | - | - |
| 1777321096 | 10° C | 73% | 904.9 hPa | 0 mm | - | - | - |
| 1777320495 | 10° C | 69% | 904.8 hPa | 0 mm | - | - | - |
| 1777319895 | 9.44° C | 75% | 904.7 hPa | 0 mm | - | - | - |
| 1777319294 | 10° C | 74% | 904.6 hPa | 0 mm | - | - | - |
| 1777318694 | 9.44° C | 75% | 904.4 hPa | 0 mm | - | - | - |
| 1777318093 | 9.44° C | 72% | 904.5 hPa | 0 mm | - | - | - |
| 1777317493 | 9.44° C | 73% | 904.6 hPa | 0 mm | - | - | - |
| 1777316892 | 10° C | 72% | 904.6 hPa | 0 mm | - | - | - |
| 1777316292 | 10° C | 68% | 904.7 hPa | 0 mm | - | - | - |
| 1777315692 | 10° C | 61% | 904.5 hPa | 0 mm | - | - | - |
| 1777315091 | 10° C | 60% | 904.6 hPa | 0 mm | - | - | - |
| 1777314490 | 10° C | 59% | 904.6 hPa | 0 mm | - | - | - |
| 1777313891 | 10.56° C | 57% | 904.5 hPa | 0 mm | - | - | - |
| 1777313289 | 10.56° C | 54% | 904.3 hPa | 0 mm | - | - | - |
| 1777312689 | 10.56° C | 53% | 904.1 hPa | 0 mm | - | - | - |
| 1777312089 | 10.56° C | 53% | 904.1 hPa | 0 mm | - | - | - |
| 1777311488 | 10° C | 49% | 904.2 hPa | 0 mm | - | - | - |
| 1777310888 | 10.56° C | 44% | 904.1 hPa | 0 mm | - | - | - |
| 1777310288 | 10° C | 39% | 904.1 hPa | 0 mm | - | - | - |
| 1777309687 | 10° C | 36% | 904 hPa | 0 mm | - | - | - |
| 1777309087 | 10° C | 38% | 903.9 hPa | 0 mm | - | - | - |
| 1777308487 | 10° C | 34% | 904 hPa | 0 mm | - | - | - |
| 1777307886 | 10° C | 28% | 903.7 hPa | 0 mm | - | - | - |
| 1777307286 | 8.89° C | 29% | 903.8 hPa | 0 mm | - | - | - |
* Rain since midnight (hover to see other rain measurements)
** Current wind speed in m/s (hover to see current wind gust speed)